Weather in Urshelskiy

Russia / Vladimir Oblast     55°40′35″N   40°12′49″E
temp.,
°C
wind,
m/s
gust,
m/s
humid.,
%
clouds,
%
prec.,
mm/h
press.,
hPa
HPBL,
m
8 august, mon
mon800:00+18ne3886100 0.1 1019221
03:00+16nne2795100 0.1 1019160
06:00+17nne3793100 0.3 1020232
09:00+21ne347399 0.4 1020475
12:00+27nne215062 0.0 10201173
15:00+29ssw124269 0.0 10192093
18:00+20nne378381 1.3 1020226
21:00+17nne259212 1.9 102099
9 august, tue
tue900:00+16nne269844 1.2 1021137
03:00+16w2599100 3.4 1022156
06:00+16ene2497100 0.9 1021144
09:00+18se0189100 1.1 1021239
12:00+18nne1190100 0.7 1021253
15:00+19ese1292100 3.1 1021232
18:00+18nne2495100 1.4 1020226
21:00+17ne249997 5.1 1020139
10 august, wed
wed1000:00+15ne229986 0.4 102046
03:00+14nne239941 0.4 102067
06:00+15n259884 0.0 1020166
09:00+17n3489100 0.0 1021501
12:00+20n346865 0.1 1021989
15:00+23nne35485 0.1 10211487
18:00+20nnw4953100 0.0 1021446
21:00+16n2972100 0.0 1023276
11 august, thu
thu1100:00+13n26870 0.0 1024110
03:00+11n24910 0.0 102487
06:00+12n26900 0.0 1026160
09:00+18n346112 0.0 1026720
12:00+22n33462 0.0 10251413
15:00+24n22410 0.0 10241690
18:00+23n23520 0.0 1024210
21:00+16n1169100 0.0 102411
12 august, fri
fri1200:00+15nnw117381 0.0 102511
03:00+13nw117599 0.0 102510
06:00+14wnw2271100 0.0 102551
09:00+20wnw2449100 0.0 1025429
12:00+25wnw34375 0.0 10241509
15:00+26wnw35343 0.0 10231811
18:00+24nw25450 0.0 1022278
21:00+18nw22670 0.0 102312